EHI
0 1 2 2 1 0 0 0 0 1 2 1 0 1 1 1 0 0 0 0 0 0 0 0 0 0 0 0 0 0 0 0 0 0 0 0 0 0 0 0 0 0 0
1 2 3 3 1 0 0 0 0 1 2 1 0 0 0 0 0 0 0 0 0 0 0 0 0 0 0 0 0 0 0 0 0 0 0 0 0 0 0 0 0 0 0
4 3 4 4 2 0 0 0 0 1 1 0 0 0 0 0 0 0 0 0 0 0 0 0 0 0 0 0 0 0 0 0 0 0 0 0 0 0 0 0 0 0 0
4 3 4 5 4 1 0 0 0 0 0 0 0 0 0 0 0 0 0 0 0 0 0 0 0 0 0 0 0 0 0 0 0 0 0 0 0 0 0 0 0 0 0
4 2 3 7 6 2 0 0 0 0 0 0 0 0 0 0 0 0 0 0 0 0 0 0 0 0 0 0 0 0 0 0 0 0 0 0 0 0 0 0 0 0 0
5 2 3 7 7 3 1 0 0 0 0 0 0 0 0 0 0 0 0 0 0 0 0 0 0 0 0 0 0 0 0 0 0 0 0 0 0 0 0 0 0 0 0
7 3 3 6 6 3 1 0 0 0 0 0 0 0 0 0 0 0 0 0 0 0 0 0 0 0 0 0 0 0 0 0 0 0 0 0 0 0 0 0 0 0 0
8 5 3 4 3 1 0 0 0 0 0 0 0 0 0 0 0 0 0 0 0 0 0 0 0 0 1 1 1 0 0 0 0 0 0 0 0 0 0 0 0 0 0
9 7 4 2 1 0 0 0 0 0 0 0 0 0 0 0 0 0 0 0 0 0 0 0 0 0 1 2 2 0 0 0 0 0 0 0 0 0 0 0 0 0 0
7 5 3 2 1 0 0 0 0 0 0 0 0 0 0 0 0 0 0 0 0 0 0 0 0 0 1 2 1 1 0 0 0 0 0 0 0 0 0 0 0 0 0
6 3 2 1 1 0 0 0 0 0 0 0 0 0 0 0 0 0 0 0 0 0 0 0 0 0 1 1 1 1 0 0 0 0 0 0 0 0 0 0 0 0 0
7 4 2 1 0 0 0 0 0 0 0 0 0 0 0 0 0 0 0 0 0 0 0 0 0 0 0 0 0 0 0 0 0 0 0 0 0 0 0 0 0 0 0
10 8 4 1 0 0 0 0 0 0 0 0 0 0 0 0 0 0 0 0 0 0 0 0 0 0 0 0 0 0 0 0 0 0 0 0 0 0 0 0 0 0 0
13 11 7 4 1 1 0 0 0 0 0 0 0 0 0 0 0 0 0 0 0 0 0 0 0 0 0 0 0 0 0 0 0 0 0 0 0 0 0 0 0 0 0
17 14 10 6 3 2 1 0 0 0 0 0 0 0 0 0 0 0 0 0 0 0 0 0 0 0 0 0 0 0 0 0 0 0 0 0 0 0 0 0 0 0 0
26 21 15 10 7 5 2 1 1 1 0 0 1 1 1 0 0 0 0 0 0 0 0 0 0 0 0 0 0 0 0 0 0 0 0 0 0 0 0 0 0 0 0
44 37 28 20 15 11 7 3 3 2 1 1 2 3 2 1 0 0 0 0 0 0 0 0 0 0 0 0 0 0 0 0 0 0 0 0 0 0 0 0 0 0 0
61 55 46 36 29 22 14 8 5 4 3 3 4 5 4 3 2 2 1 0 0 0 0 0 0 0 0 0 0 0 0 0 0 0 0 0 0 0 0 1 1 0 0
71 67 58 49 42 33 24 15 9 7 7 6 7 7 7 5 4 4 2 0 0 0 0 0 0 0 0 0 0 0 0 0 0 0 0 0 0 0 0 1 1 0 0
75 72 66 58 50 43 34 26 20 15 11 10 10 9 8 8 7 6 3 0 0 0 0 0 0 0 0 0 0 0 0 0 0 0 0 0 0 0 0 0 0 0 0
78 76 71 63 54 48 42 35 30 23 17 13 11 10 10 11 10 7 4 1 0 0 0 0 0 0 0 0 0 0 0 0 0 0 0 0 0 0 0 0 0 0 0
78 77 73 65 56 49 42 35 31 27 21 15 12 11 13 12 9 7 5 2 0 0 0 0 0 0 0 0 0 0 0 0 0 0 0 0 0 0 0 0 0 0 0
78 77 72 63 55 49 41 33 29 29 25 18 13 13 13 11 8 6 5 3 1 0 0 0 0 0 0 0 0 0 0 0 0 0 0 0 0 0 0 0 0 0 0
78 77 72 64 56 50 42 33 30 29 25 18 13 12 12 11 8 6 4 3 1 0 0 0 0 0 0 0 0 0 0 0 0 0 0 0 0 0 0 0 0 0 0
80 78 74 68 58 50 41 33 28 23 19 16 14 13 11 11 9 7 5 4 2 1 1 1 0 0 0 0 0 0 0 0 0 0 0 0 0 0 0 0 0 0 0
83 80 77 70 59 50 41 32 25 18 14 16 17 15 13 11 10 9 7 5 3 2 2 2 1 0 0 0 0 0 0 0 0 0 0 0 0 0 0 0 0 0 0
Wind_Speed
5 6 14 16 17 17 18 18 18 19 19 20 20 20 20 20 20 20 19 19 18 18 17 17 17 16 16 16 16 15 16 16 16 16 16 16 16 16 15 16 15 11 16
9 9 15 16 17 17 17 17 18 18 19 19 19 19 19 19 19 19 18 17 17 17 17 17 16 15 15 15 15 14 15 15 15 16 15 14 15 15 15 15 14 10 15
12 10 13 16 17 17 17 17 17 18 18 18 18 18 18 18 18 18 17 17 16 16 16 16 15 15 14 14 14 14 14 15 15 15 14 7 10 15 15 16 16 15 15
13 9 12 17 17 17 17 17 17 17 17 17 17 17 17 17 17 17 16 16 15 15 15 14 14 14 13 13 13 12 13 14 15 14 7 6 7 14 15 15 15 15 14
11 8 13 19 18 17 17 16 17 17 17 17 16 16 16 16 16 16 15 15 15 14 14 14 13 13 12 12 11 11 11 13 14 12 6 6 6 13 14 14 14 14 13
11 9 13 18 18 17 17 16 16 16 16 16 16 16 16 16 15 15 15 14 14 13 13 13 12 11 11 11 10 10 11 13 11 7 6 5 5 12 14 14 14 13 13
11 8 12 18 18 17 17 17 16 16 16 15 15 15 15 15 15 14 14 13 13 12 12 11 11 10 10 9 9 9 10 12 8 6 5 5 6 11 13 13 13 13 12
13 10 11 17 18 17 17 16 16 16 15 15 15 15 14 14 14 14 13 13 12 12 11 10 9 9 8 8 8 9 10 12 10 8 5 5 9 11 13 13 12 12 11
12 10 8 9 12 16 16 16 16 15 15 15 14 14 14 14 13 13 12 12 11 11 10 9 8 8 7 7 8 9 11 13 7 5 7 4 9 11 12 12 12 11 11
10 9 8 7 7 7 9 15 15 15 15 14 14 14 13 13 13 12 10 10 10 9 9 8 7 7 6 7 7 10 12 11 5 5 4 5 11 12 12 11 11 11 11
11 8 8 8 7 7 7 11 12 14 13 12 11 13 10 5 5 6 9 10 9 8 7 6 5 4 4 5 6 9 9 4 5 4 3 8 11 11 11 11 10 10 10
13 10 8 9 8 7 7 6 4 5 5 5 4 5 4 3 3 5 8 9 8 7 5 3 2 2 2 2 4 7 4 5 4 3 4 10 10 11 11 10 10 9 9
15 13 11 10 9 7 5 5 3 3 3 4 5 5 4 3 2 3 2 3 3 3 1 1 1 1 1 1 2 3 4 4 3 3 5 10 9 10 10 10 9 9 9
14 13 12 11 9 8 7 5 5 4 3 3 4 5 4 3 3 3 2 2 1 1 1 1 0 1 0 1 3 4 5 4 3 2 4 10 9 10 10 9 9 9 8
14 14 13 12 10 9 7 6 6 5 5 5 4 5 5 4 4 3 2 2 2 1 2 1 1 1 1 2 3 5 6 6 5 4 4 10 9 9 9 9 9 9 8
14 14 12 12 11 10 8 6 6 5 5 5 4 5 6 5 4 4 3 2 2 2 2 2 2 2 2 2 3 5 5 5 5 4 3 6 9 9 9 9 9 8 8
14 13 11 12 11 10 9 8 6 5 5 5 5 5 6 5 5 5 4 3 3 2 2 2 2 1 1 2 3 4 4 5 5 5 4 3 4 7 9 9 8 8 8
13 13 12 12 11 9 7 6 5 5 6 5 4 5 6 6 6 5 4 3 3 3 2 2 2 2 1 1 2 2 3 4 5 5 4 4 3 4 6 9 9 8 8
14 13 11 10 10 8 7 5 5 5 5 5 4 4 5 6 6 4 4 3 3 3 2 3 2 2 2 2 2 2 2 3 4 6 5 5 5 4 3 6 9 9 9
13 12 11 9 9 8 5 4 3 4 4 4 4 5 6 5 6 5 3 3 3 3 2 2 2 2 2 2 1 1 1 2 3 4 6 5 5 6 5 5 4 6 9
13 12 11 11 9 7 5 4 5 4 4 4 4 6 6 5 5 5 4 3 3 3 3 4 2 2 1 1 2 2 2 1 2 3 4 4 5 6 5 5 4 3 4
15 13 12 11 10 8 6 4 4 4 3 4 4 5 5 5 5 5 5 4 4 3 3 3 3 2 1 2 3 2 1 3 2 2 3 4 5 4 5 7 5 5 4
14 15 13 12 10 9 7 4 3 3 2 2 3 4 4 6 6 5 6 5 4 4 4 4 4 4 2 1 2 4 3 3 2 2 3 3 4 4 4 5 7 7 6
15 13 12 12 11 9 9 7 7 6 5 5 4 4 4 5 6 6 5 5 5 4 4 4 4 3 4 2 1 1 3 4 3 1 2 2 4 5 5 6 6 7 6
14 13 12 12 11 9 9 9 8 6 4 3 4 5 5 5 6 6 6 5 5 4 4 4 4 4 3 3 2 2 1 1 2 2 2 2 2 3 4 5 5 5 7
12 12 12 12 11 10 10 9 9 8 6 6 6 6 5 4 4 6 6 5 5 5 5 5 4 5 4 4 3 3 3 2 2 3 3 3 3 3 3 4 5 5 5
Wind_Direction
135 135 125 117 112 108 104 101 99 98 97 97 98 101 102 103 103 102 102 102 101 101 101 101 101 102 104 105 105 104 105 105 105 106 107 108 109 109 109 110 108 107 110
140 136 127 120 116 113 109 106 104 102 101 101 102 103 103 103 103 103 103 103 103 103 103 103 103 104 104 104 104 105 106 105 104 102 104 107 108 107 108 108 108 111 112
132 130 126 123 120 117 114 111 108 107 106 105 105 105 105 105 105 106 106 106 106 105 105 104 104 104 103 103 104 106 107 106 102 101 98 95 103 106 107 108 109 110 111
131 130 129 127 123 120 118 115 113 111 109 108 108 108 108 108 108 108 108 108 107 106 106 106 106 104 102 101 102 104 106 106 104 102 91 90 102 108 108 108 109 110 112
127 129 134 129 126 123 121 119 117 115 113 112 112 112 112 112 111 111 110 109 109 109 109 108 107 105 102 100 99 103 105 106 104 98 90 85 95 111 111 111 110 110 111
128 131 136 132 129 127 125 123 121 119 118 117 117 116 116 115 114 113 112 112 112 112 111 109 107 103 100 99 99 101 104 106 102 98 93 93 98 112 113 113 113 112 112
131 132 135 133 132 131 129 127 125 123 122 121 120 120 119 119 118 117 116 115 114 113 113 112 109 105 101 99 97 99 104 108 106 104 99 95 105 112 114 113 114 113 113
136 134 136 136 135 134 132 131 130 129 128 126 125 124 123 122 121 120 120 119 118 117 116 115 111 106 99 96 94 97 105 115 112 113 105 103 115 116 116 116 116 116 116
136 134 133 137 138 138 137 135 134 133 132 131 130 129 127 126 125 124 123 124 123 122 121 118 113 107 101 97 93 97 108 117 113 119 121 115 122 121 120 120 120 119 119
136 137 134 132 132 134 137 140 139 137 136 135 134 134 133 132 130 128 126 128 128 128 127 124 117 106 98 98 97 102 112 116 108 108 113 130 130 128 126 124 124 123 121
143 146 144 140 138 136 141 145 143 142 142 139 138 138 131 119 121 127 135 136 135 134 133 128 121 106 98 100 103 109 110 113 109 110 119 136 136 134 133 130 129 127 126
156 158 157 153 152 153 152 138 139 141 138 134 136 133 125 128 141 141 148 145 143 141 137 130 112 74 80 82 99 108 110 119 113 123 135 140 140 138 137 137 136 134 133
161 163 163 163 164 163 146 150 147 140 143 147 152 151 145 140 138 129 133 140 137 142 122 128 51 356 34 98 118 125 124 122 126 134 145 147 145 144 143 144 143 141 140
164 166 167 169 168 164 155 160 156 154 160 163 168 164 150 145 144 148 149 158 163 165 188 215 255 265 299 142 138 138 132 132 133 128 150 152 152 152 151 150 150 150 149
166 167 170 170 169 164 160 168 164 167 172 171 168 168 159 155 159 163 169 178 190 191 190 187 188 152 122 120 139 138 139 144 150 147 154 162 160 160 160 159 158 158 159
167 167 168 168 168 164 168 171 165 171 170 166 170 172 167 162 162 164 168 178 190 192 188 175 170 148 128 121 125 136 141 147 153 153 157 167 168 170 172 170 169 169 168
164 163 165 167 165 165 167 170 165 168 167 170 173 171 170 165 163 163 166 177 193 180 160 142 136 118 125 121 123 138 146 157 159 163 165 165 174 182 183 182 179 179 181
158 159 167 168 163 164 163 162 161 166 165 170 169 168 169 166 164 160 167 180 180 160 149 141 133 118 105 112 124 149 146 157 167 173 174 176 181 188 194 193 189 189 191
162 161 165 161 162 162 158 156 158 159 164 166 163 162 167 167 163 159 169 178 163 148 152 163 134 136 142 146 157 156 154 163 171 179 185 191 194 193 193 200 196 196 200
164 162 161 160 162 155 146 141 140 149 160 161 162 168 167 168 165 158 164 169 152 141 140 136 135 130 149 161 152 131 175 181 175 183 191 192 198 201 198 200 196 205 206
166 164 164 164 166 157 152 156 154 164 167 167 173 174 171 170 167 161 163 161 154 154 163 154 138 132 140 122 85 40 351 320 198 196 194 188 198 201 194 198 195 198 209
171 171 168 170 171 169 167 163 159 157 167 172 175 174 172 170 171 172 163 167 167 158 154 158 144 138 167 142 131 112 16 339 311 220 201 197 200 197 198 202 198 201 203
175 176 176 175 174 172 164 150 139 125 124 152 175 182 183 177 181 174 171 168 170 165 172 177 164 154 170 197 159 147 153 215 274 300 238 210 195 194 203 202 205 207 206
180 176 172 173 173 172 169 168 168 172 180 190 182 184 187 186 186 182 175 171 172 170 175 187 173 163 155 180 201 185 172 165 161 259 301 253 214 203 202 205 208 209 208
173 172 171 170 174 175 177 178 179 184 187 176 171 179 186 192 193 191 181 175 174 177 183 188 173 170 167 171 178 177 160 155 150 153 241 277 270 231 211 208 206 206 206
169 171 171 173 178 179 181 183 186 184 180 175 183 188 192 192 195 193 185 182 182 183 186 189 185 180 182 179 178 174 167 171 189 173 198 233 247 255 226 211 209 208 207